TimeEST,TemperatureF,Dew PointF,Humidity,Sea Level PressureIn,VisibilityMPH,Wind Direction,Wind SpeedMPH,Gust SpeedMPH,PrecipitationIn,Events,Conditions,WindDirDegrees,DateUTC
12:53 AM,75.0,68.0,79,30.17,10.0,ESE,11.5,-,N/A,,Scattered Clouds,120,2013-01-12 05:53:00
1:53 AM,73.9,66.9,79,30.16,10.0,East,11.5,-,N/A,,Scattered Clouds,100,2013-01-12 06:53:00
2:53 AM,73.9,66.9,79,30.15,10.0,ESE,5.8,-,N/A,,Scattered Clouds,120,2013-01-12 07:53:00
3:53 AM,73.9,66.0,76,30.14,10.0,ESE,10.4,-,N/A,,Scattered Clouds,110,2013-01-12 08:53:00
4:53 AM,73.9,66.9,79,30.14,10.0,ESE,6.9,-,N/A,,Mostly Cloudy,110,2013-01-12 09:53:00
5:53 AM,73.0,66.9,81,30.14,10.0,ESE,6.9,-,N/A,,Mostly Cloudy,120,2013-01-12 10:53:00
6:53 AM,72.0,66.0,81,30.16,10.0,East,4.6,-,N/A,,Partly Cloudy,100,2013-01-12 11:53:00
7:53 AM,73.0,66.0,79,30.17,10.0,ESE,5.8,-,N/A,,Partly Cloudy,110,2013-01-12 12:53:00
8:53 AM,75.9,64.9,69,30.18,10.0,ESE,13.8,-,N/A,,Scattered Clouds,120,2013-01-12 13:53:00
9:53 AM,79.0,64.9,62,30.20,10.0,ESE,15.0,-,N/A,,Mostly Cloudy,120,2013-01-12 14:53:00
10:53 AM,77.0,66.9,71,30.18,10.0,ESE,12.7,-,0.00,,Mostly Cloudy,120,2013-01-12 15:53:00
11:53 AM,81.0,66.0,60,30.16,10.0,East,16.1,23.0,N/A,,Mostly Cloudy,100,2013-01-12 16:53:00
12:53 PM,79.0,64.9,62,30.14,10.0,East,13.8,-,N/A,,Scattered Clouds,100,2013-01-12 17:53:00
1:53 PM,79.0,64.9,62,30.12,10.0,ESE,11.5,-,N/A,,Scattered Clouds,110,2013-01-12 18:53:00
2:53 PM,79.0,64.0,60,30.11,10.0,ESE,12.7,-,N/A,,Scattered Clouds,110,2013-01-12 19:53:00
3:53 PM,78.1,64.9,64,30.11,10.0,ESE,10.4,-,N/A,,Scattered Clouds,110,2013-01-12 20:53:00
4:53 PM,78.1,64.9,64,30.12,10.0,East,10.4,-,N/A,,Scattered Clouds,100,2013-01-12 21:53:00
5:53 PM,75.0,64.9,71,30.13,10.0,East,9.2,-,N/A,,Scattered Clouds,100,2013-01-12 22:53:00
6:53 PM,73.9,64.0,71,30.13,10.0,East,6.9,-,N/A,,Clear,100,2013-01-12 23:53:00
7:53 PM,73.0,63.0,71,30.14,10.0,East,5.8,-,N/A,,Clear,80,2013-01-13 00:53:00
8:53 PM,73.0,63.0,71,30.14,10.0,ENE,3.5,-,N/A,,Partly Cloudy,60,2013-01-13 01:53:00
9:53 PM,73.0,62.1,68,30.13,10.0,ENE,4.6,-,N/A,,Clear,60,2013-01-13 02:53:00
10:53 PM,71.1,62.1,73,30.13,10.0,East,5.8,-,N/A,,Clear,90,2013-01-13 03:53:00
11:53 PM,73.0,64.0,73,30.11,10.0,East,9.2,-,N/A,,Scattered Clouds,80,2013-01-13 04:53:00